Location: Belloy
(55.7522°N, 118.2333°W)
Time: 00:30:44
(UTC+00:00)

Envisat - Pass Details

Date: 05 December 2021
Orbit: 764 x 766 km, 98.2° (Epoch: 27 January)

Event Time Altitude Azimuth Distance (km) Brightness Sun altitude
Rises 11:33:22 0° 24° (NNE) 3,249 6.7 -36.5°
Reaches altitude 10° 11:36:31 10° 45° (NE) 2,316 6.1 -36.1°
Maximum altitude 11:39:49 17° 85° (E) 1,867 5.6 -35.7°
Drops below altitude 10° 11:43:05 10° 126° (SE) 2,304 5.9 -35.2°
Sets 11:46:12 0° 146° (SE) 3,225 6.5 -34.8°
